Time,TemperatureF,DewpointF,PressureIn,WindDirection,WindDirectionDegrees,WindSpeedMPH,WindSpeedGustMPH,Humidity,HourlyPrecipIn,Conditions,Clouds,dailyrainin,SoftwareType,DateUTC
2013-05-26 00:02:00,53.0,-99.9,-100.00,West,280,5.0,-999.0,-999,-99.99,,,-99.99,,2013-05-26 07:02:00,
2013-05-26 00:11:00,53.0,-99.9,-100.00,West,280,5.0,-999.0,-999,-99.99,,,-99.99,,2013-05-26 07:11:00,
2013-05-26 00:20:00,52.0,-99.9,-100.00,WNW,290,1.0,-999.0,-999,-99.99,,,-99.99,,2013-05-26 07:20:00,
2013-05-26 01:02:00,52.0,-99.9,-100.00,WNW,290,1.0,-999.0,-999,-99.99,,,-99.99,,2013-05-26 08:02:00,
2013-05-26 01:12:00,52.0,-99.9,-100.00,WNW,290,1.0,-999.0,-999,-99.99,,,-99.99,,2013-05-26 08:12:00,
2013-05-26 01:20:00,51.0,-99.9,-100.00,NNW,338,6.0,-999.0,-999,-99.99,,,-99.99,,2013-05-26 08:20:00,
2013-05-26 02:02:00,51.0,-99.9,-100.00,NNW,338,6.0,-999.0,-999,-99.99,,,-99.99,,2013-05-26 09:02:00,
2013-05-26 02:10:00,51.0,-99.9,-100.00,NW,314,6.0,-999.0,-999,-99.99,,,-99.99,,2013-05-26 09:10:00,
2013-05-26 02:11:00,51.0,-99.9,-100.00,NNW,338,6.0,-999.0,-999,-99.99,,,-99.99,,2013-05-26 09:11:00,
2013-05-26 03:03:00,51.0,-99.9,-100.00,NW,314,6.0,-999.0,-999,-99.99,,,-99.99,,2013-05-26 10:03:00,
2013-05-26 03:20:00,51.0,-99.9,-100.00,WNW,285,6.0,-999.0,-999,-99.99,,,-99.99,,2013-05-26 10:20:00,
2013-05-26 04:03:00,51.0,-99.9,-100.00,WNW,285,6.0,-999.0,-999,-99.99,,,-99.99,,2013-05-26 11:03:00,
2013-05-26 04:12:00,51.0,-99.9,-100.00,WNW,285,6.0,-999.0,-999,-99.99,,,-99.99,,2013-05-26 11:12:00,
2013-05-26 04:20:00,51.0,-99.9,-100.00,WNW,298,2.0,-999.0,-999,-99.99,,,-99.99,,2013-05-26 11:20:00,
2013-05-26 05:02:00,51.0,-99.9,-100.00,WNW,298,2.0,-999.0,-999,-99.99,,,-99.99,,2013-05-26 12:02:00,
2013-05-26 05:12:00,51.0,-99.9,-100.00,WNW,298,2.0,-999.0,-999,-99.99,,,-99.99,,2013-05-26 12:12:00,
2013-05-26 05:20:00,50.0,-99.9,-100.00,NW,317,3.0,-999.0,-999,-99.99,,,-99.99,,2013-05-26 12:20:00,
2013-05-26 06:02:00,50.0,-99.9,-100.00,NW,317,3.0,-999.0,-999,-99.99,,,-99.99,,2013-05-26 13:02:00,
2013-05-26 06:11:00,50.0,-99.9,-100.00,NW,317,3.0,-999.0,-999,-99.99,,,-99.99,,2013-05-26 13:11:00,
2013-05-26 06:20:00,50.0,-99.9,-100.00,North,0,0.0,-999.0,-999,-99.99,,,-99.99,,2013-05-26 13:20:00,
2013-05-26 07:02:00,50.0,-99.9,-100.00,North,0,0.0,-999.0,-999,-99.99,,,-99.99,,2013-05-26 14:02:00,
2013-05-26 07:11:00,50.0,-99.9,-100.00,North,0,0.0,-999.0,-999,-99.99,,,-99.99,,2013-05-26 14:11:00,
2013-05-26 07:20:00,50.0,-99.9,-100.00,North,0,0.0,-999.0,-999,-99.99,,,-99.99,,2013-05-26 14:20:00,
2013-05-26 08:02:00,50.0,-99.9,-100.00,North,0,0.0,-999.0,-999,-99.99,,,-99.99,,2013-05-26 15:02:00,
2013-05-26 08:12:00,50.0,-99.9,-100.00,North,0,0.0,-999.0,-999,-99.99,,,-99.99,,2013-05-26 15:12:00,
2013-05-26 08:20:00,51.0,-99.9,-100.00,North,0,0.0,-999.0,-999,-99.99,,,-99.99,,2013-05-26 15:20:00,
2013-05-26 09:03:00,51.0,-99.9,-100.00,North,0,0.0,-999.0,-999,-99.99,,,-99.99,,2013-05-26 16:03:00,
2013-05-26 09:12:00,51.0,-99.9,-100.00,North,0,0.0,-999.0,-999,-99.99,,,-99.99,,2013-05-26 16:12:00,
2013-05-26 09:20:00,50.0,-99.9,-100.00,North,0,0.0,-999.0,-999,-99.99,,,-99.99,,2013-05-26 16:20:00,
2013-05-26 10:02:00,50.0,-99.9,-100.00,North,0,0.0,-999.0,-999,-99.99,,,-99.99,,2013-05-26 17:02:00,
2013-05-26 10:12:00,50.0,-99.9,-100.00,North,0,0.0,-999.0,-999,-99.99,,,-99.99,,2013-05-26 17:12:00,
2013-05-26 10:20:00,51.0,-99.9,-100.00,NW,309,5.0,-999.0,-999,-99.99,,,-99.99,,2013-05-26 17:20:00,
2013-05-26 11:01:00,51.0,-99.9,-100.00,NW,309,5.0,-999.0,-999,-99.99,,,-99.99,,2013-05-26 18:01:00,
2013-05-26 11:12:00,51.0,-99.9,-100.00,NW,309,5.0,-999.0,-999,-99.99,,,-99.99,,2013-05-26 18:12:00,
2013-05-26 11:20:00,52.0,-99.9,-100.00,North,0,0.0,-999.0,-999,-99.99,,,-99.99,,2013-05-26 18:20:00,
2013-05-26 12:02:00,52.0,-99.9,-100.00,North,0,0.0,-999.0,-999,-99.99,,,-99.99,,2013-05-26 19:02:00,
2013-05-26 12:12:00,52.0,-99.9,-100.00,North,0,0.0,-999.0,-999,-99.99,,,-99.99,,2013-05-26 19:12:00,
2013-05-26 12:20:00,53.0,-99.9,-100.00,SE,132,0.0,-999.0,-999,-99.99,,,-99.99,,2013-05-26 19:20:00,
2013-05-26 13:02:00,53.0,-99.9,-100.00,SE,132,0.0,-999.0,-999,-99.99,,,-99.99,,2013-05-26 20:02:00,
2013-05-26 13:11:00,53.0,-99.9,-100.00,SE,132,0.0,-999.0,-999,-99.99,,,-99.99,,2013-05-26 20:11:00,
2013-05-26 13:20:00,55.0,-99.9,-100.00,SE,139,2.0,-999.0,-999,-99.99,,,-99.99,,2013-05-26 20:20:00,
2013-05-26 14:02:00,55.0,-99.9,-100.00,SE,139,2.0,-999.0,-999,-99.99,,,-99.99,,2013-05-26 21:02:00,
2013-05-26 14:12:00,55.0,-99.9,-100.00,SE,139,2.0,-999.0,-999,-99.99,,,-99.99,,2013-05-26 21:12:00,
2013-05-26 14:20:00,55.0,-99.9,-100.00,NNE,30,5.0,-999.0,-999,-99.99,,,-99.99,,2013-05-26 21:20:00,
2013-05-26 15:03:00,55.0,-99.9,-100.00,NNE,30,5.0,-999.0,-999,-99.99,,,-99.99,,2013-05-26 22:03:00,
2013-05-26 15:12:00,55.0,-99.9,-100.00,NNE,30,5.0,-999.0,-999,-99.99,,,-99.99,,2013-05-26 22:12:00,
2013-05-26 15:20:00,58.0,-99.9,-100.00,SE,134,3.0,-999.0,-999,-99.99,,,-99.99,,2013-05-26 22:20:00,
2013-05-26 16:02:00,58.0,-99.9,-100.00,SE,134,3.0,-999.0,-999,-99.99,,,-99.99,,2013-05-26 23:02:00,
2013-05-26 16:12:00,58.0,-99.9,-100.00,SE,134,3.0,-999.0,-999,-99.99,,,-99.99,,2013-05-26 23:12:00,
2013-05-26 16:20:00,60.0,-99.9,-100.00,SSE,162,3.0,-999.0,-999,-99.99,,,-99.99,,2013-05-26 23:20:00,
2013-05-26 17:02:00,60.0,-99.9,-100.00,SSE,162,3.0,-999.0,-999,-99.99,,,-99.99,,2013-05-27 00:02:00,
2013-05-26 17:11:00,60.0,-99.9,-100.00,SSE,162,3.0,-999.0,-999,-99.99,,,-99.99,,2013-05-27 00:11:00,
2013-05-26 17:20:00,61.0,-99.9,-100.00,SE,135,3.0,-999.0,-999,-99.99,,,-99.99,,2013-05-27 00:20:00,
2013-05-26 18:01:00,61.0,-99.9,-100.00,SE,135,3.0,-999.0,-999,-99.99,,,-99.99,,2013-05-27 01:01:00,
2013-05-26 18:11:00,61.0,-99.9,-100.00,SE,135,3.0,-999.0,-999,-99.99,,,-99.99,,2013-05-27 01:11:00,
2013-05-26 18:20:00,61.0,-99.9,-100.00,SW,230,5.0,-999.0,-999,-99.99,,,-99.99,,2013-05-27 01:20:00,
2013-05-26 19:02:00,61.0,-99.9,-100.00,SW,230,5.0,-999.0,-999,-99.99,,,-99.99,,2013-05-27 02:02:00,
2013-05-26 19:11:00,61.0,-99.9,-100.00,SW,230,5.0,-999.0,-999,-99.99,,,-99.99,,2013-05-27 02:11:00,
2013-05-26 19:20:00,58.0,-99.9,-100.00,South,186,6.0,-999.0,-999,-99.99,,,-99.99,,2013-05-27 02:20:00,
2013-05-26 20:02:00,58.0,-99.9,-100.00,South,186,6.0,-999.0,-999,-99.99,,,-99.99,,2013-05-27 03:02:00,
2013-05-26 20:11:00,58.0,-99.9,-100.00,South,186,6.0,-999.0,-999,-99.99,,,-99.99,,2013-05-27 03:11:00,
2013-05-26 20:20:00,57.0,-99.9,-100.00,SSE,150,3.0,-999.0,-999,-99.99,,,-99.99,,2013-05-27 03:20:00,
2013-05-26 21:03:00,57.0,-99.9,-100.00,SSE,150,3.0,-999.0,-999,-99.99,,,-99.99,,2013-05-27 04:03:00,
2013-05-26 21:12:00,57.0,-99.9,-100.00,SSE,150,3.0,-999.0,-999,-99.99,,,-99.99,,2013-05-27 04:12:00,
2013-05-26 21:20:00,57.0,-99.9,-100.00,South,188,7.0,-999.0,-999,-99.99,,,-99.99,,2013-05-27 04:20:00,
2013-05-26 22:02:00,57.0,-99.9,-100.00,South,188,7.0,-999.0,-999,-99.99,,,-99.99,,2013-05-27 05:02:00,
2013-05-26 22:12:00,57.0,-99.9,-100.00,South,188,7.0,-999.0,-999,-99.99,,,-99.99,,2013-05-27 05:12:00,
2013-05-26 22:20:00,55.0,-99.9,-100.00,South,183,6.0,-999.0,-999,-99.99,,,-99.99,,2013-05-27 05:20:00,
2013-05-26 23:02:00,55.0,-99.9,-100.00,South,183,6.0,-999.0,-999,-99.99,,,-99.99,,2013-05-27 06:02:00,
2013-05-26 23:11:00,55.0,-99.9,-100.00,South,183,6.0,-999.0,-999,-99.99,,,-99.99,,2013-05-27 06:11:00,
2013-05-26 23:20:00,54.0,-99.9,-100.00,SSE,150,3.0,-999.0,-999,-99.99,,,-99.99,,2013-05-27 06:20:00,